Regional Weather Roundup
Issued by NWS

Home | Current Version | Previous Version | Text Only | Print | Product List | Glossary Off
Versions: 1 2 3 4 5 6 7 8 9 10 11 12 13 14 15 16 17 18 19 20 21 22 23 24 25 26 27 28 29 30 31 32 33 34 35 36 37 38 39 40 41 42 43 44 45 46 47 48 49 50

000
ASUS43 KMPX 262010
RWRMN
WEATHER ROUNDUP FOR MINNESOTA
NATIONAL WEATHER SERVICE TWIN CITIES/CHANHASSEN MN
300 PM CDT MON JUN 26 2017


NOTE: "FAIR" INDICATES FEW OR NO CLOUDS BELOW 12,000 FEET WITH NO
SIGNIFICANT WEATHER AND/OR OBSTRUCTIONS TO VISIBILITY. N/A MEANS
CURRENT SKY AND/OR WEATHER CONDITIONS ARE NOT AVAILABLE.

MNZ060>063-068>070-262100-
   Twin Cities Metro

CITY           SKY/WX    TMP DP  RH WIND       PRES   REMARKS
TWIN CITIES    PTSUNNY   69  42  37 VRB6G16   30.14F
ST PAUL        MOSUNNY   70  44  39 NW8G23    30.14F
CRYSTAL        MOSUNNY   70  41  34 NW10      30.13F
BLAINE         MOSUNNY   72  43  35 NW10      30.13F
LAKEVILLE      PTSUNNY   68  43  40 NW8       30.14F
EDEN PRAIRIE   MOSUNNY   71  42  35 N12       30.13F
SOUTH ST PAUL  MOSUNNY   69  42  37 N8        30.13F
LAKE ELMO      FAIR      64  45  48 N6        30.14F
$$
MNZ001>005-007-008-013>017-022>024-027-028-262100-
   Northwest Minnesota

CITY           SKY/WX    TMP DP  RH WIND       PRES   REMARKS
BEMIDJI        MOSUNNY   67  38  34 NW13      30.14F
HALLOCK        PTSUNNY   72  37  28 NW8G16    30.12F
ROSEAU         MOSUNNY   70  46  43 W16       30.11S
WARROAD        MOSUNNY   68  48  49 W8        30.10F
THIEF RVR FALL PTSUNNY   69  39  33 NW15      30.15F
CROOKSTON      MOSUNNY   72  39  30 NW10G18   30.15F
FOSSTON        PTSUNNY   68  43  40 W14G21    30.16F
DETROIT LAKES  MOSUNNY   68  39  34 NW6       30.18F
MOORHEAD       MOSUNNY   70  36  28 NW7       30.17F
PARK RAPIDS    MOSUNNY   71  39  31 NW10      30.15F
MAHNOMEN       FAIR      69  40  34 NW9       30.16F
$$
MNZ006-009>011-018-025>026-262100-
   North Central Minnesota

CITY           SKY/WX    TMP DP  RH WIND       PRES   REMARKS
BAUDETTE       PTSUNNY   66  46  48 NW10G18   30.09F
FLAG ISLAND    MOSUNNY   66  45  45 NW10      30.07F
INTL FALLS     PTSUNNY   67  44  43 NW14G23   30.06F
WASKISH        CLOUDY    66  46  48 W10G16    30.11F
BIG FORK       LGT RAIN  64  43  45 W5        30.10F
LONGVILLE      MOSUNNY   66  46  48 W7        30.14F
GRAND RAPIDS   PTSUNNY   65  44  46 NW16      30.13F
CRANE LAKE     MOSUNNY   63  43  48 NW6G22    30.08S
ORR            MOSUNNY   63  46  55 NW9       30.06S
COOK           CLOUDY    61  52  72 W5        30.08F
WALKER         FAIR      65  44  45 NW8       30.15S
$$
MNZ012-019>021-037-262100-
   Northeast Minnesota

CITY           SKY/WX    TMP DP  RH WIND       PRES   REMARKS
DULUTH         MOSUNNY   64  44  48 NW12      30.08F
ELY            LGT RAIN  63  39  42 N9G18     30.05F
HIBBING        PTSUNNY   61  46  57 E10       30.09S
EVELETH        LGT RAIN  54  46  72 CALM      30.11F
DULUTH HARBOR  MOSUNNY   68  48  49 W22       30.07S
TWO HARBORS    CLOUDY    66  52  59 S10       30.04S
SILVER BAY     PTSUNNY   66  46  48 N7G20     30.03F
GRAND MARAIS     N/A     51  45  79 W10       30.00F
G MARAIS ARPRT PTSUNNY   61  43  51 W9G20     30.03S
$$
MNZ029>031-032-039>041-046>048-054>057-064-262100-
   West Central Minnesota

CITY           SKY/WX    TMP DP  RH WIND       PRES   REMARKS
FERGUS FALLS   MOSUNNY   68  41  37 N6        30.16F
WHEATON        SUNNY     68  41  37 N8        30.21F
MORRIS         MOSUNNY   72  43  35 N5        30.18F
ALEXANDRIA     MOSUNNY   67  41  38 N12       30.19F
ELBOW LAKE     FAIR      67  44  43 NW9       30.19F
WADENA         SUNNY     68  43  40 NW7       30.16F
GLENWOOD       MOSUNNY   70  43  37 N7G16     30.19S
APPLETON       SUNNY     70  37  30 NE7       30.19F
BENSON         MOSUNNY   70  39  32 N6        30.20F
ORTONVILLE     SUNNY     70  39  32 N8G16     30.19F
MADISON        SUNNY     70  43  37 N10       30.20S
WILLMAR        FAIR      68  43  40 N6        30.19F
$$
MNZ033>034-036-042>043-049>051-058-059-262100-
   Central Minnesota

CITY           SKY/WX    TMP DP  RH WIND       PRES   REMARKS
ST CLOUD       MOSUNNY   70  42  36 N8G18     30.14F
SAUK CENTRE    MOCLDY    68  42  38 NW13      30.17F
PAYNESVILLE    MOSUNNY   69  38  32 N3        30.17F
AITKIN         SUNNY     64  45  48 NW8       30.13F
PINE RIVER     PTSUNNY   66  45  45 NW5       30.17F
BRAINERD       SUNNY     68  40  35 NW10      30.15F
STAPLES        SUNNY     70  39  32 NW13      30.16F
LONG PRAIRIE   FAIR      68  41  37 NW7       30.17F
LITTLE FALLS   MOSUNNY   68  37  32 NW8       30.16S
LITCHFIELD     MOSUNNY   70  46  43 VRB6      30.17F
BUFFALO        SUNNY     69  40  34 NW7       30.16F
MAPLE LAKE     MOSUNNY   69  46  43 NW7       30.16F
HUTCHINSON     PTSUNNY   69  44  41 NW8       30.18F
$$
MNZ037-044-045-052-053-262100-
   East Central Minnesota

CITY           SKY/WX    TMP DP  RH WIND       PRES   REMARKS
PRINCETON      MOSUNNY   70  43  37 NW10      30.14F
MORA           MOSUNNY   64  48  55 NW7       30.15F
CAMBRIDGE      PTSUNNY   66  48  52 N9        30.12S
RUSH CITY      MOSUNNY   64  52  63 W6        30.14S
MOOSE LAKE     MOSUNNY   66  43  42 NW9G16    30.09F
HINCKLEY       FAIR      68  48  49 NW8       30.12F
CLOQUET        MOSUNNY   68  37  32 NW13G22   30.08F
MCGREGOR       MOSUNNY   66  43  42 NW14G20   30.13F
$$
MNZ071>073-080-081-089-090-097-098-262100-
   Southwest Minnesota

CITY           SKY/WX    TMP DP  RH WIND       PRES   REMARKS
MONTEVIDEO     SUNNY     72  43  35 NE3       30.19F
GRANITE FALLS  MOSUNNY   70  42  36 CALM      30.20F
CANBY          SUNNY     70  39  32 CALM      30.21F
MARSHALL       MOSUNNY   66  40  38 N9        30.19F
REDWOOD FALLS  PTSUNNY   68  39  34 N8        30.17F
OLIVIA         MOSUNNY   70  43  37 NW6       30.17F
PIPESTONE      SUNNY     68  37  32 N5        30.19F
WINDOM         SUNNY     66  37  34 CALM      30.18F
WORTHINGTON    MOSUNNY   67  43  41 NE9G22    30.19F
JACKSON        MOSUNNY   64  37  36 N7        30.19F
TRACY          SUNNY     68  43  39 NW9       30.20F
SLAYTON        SUNNY     66  41  40 NW7G16    30.20F
$$
MNZ065>067-074>077-082>085-091>093-262100-
   South Central Minnesota

CITY           SKY/WX    TMP DP  RH WIND       PRES   REMARKS
MANKATO        PTSUNNY   68  42  38 VRB6      30.17F
NEW ULM        MOSUNNY   70  39  32 N5        30.17F
ST JAMES       SUNNY     68  37  32 CALM      30.18F
GLENCOE        PTSUNNY   67  45  44 NW5       30.16F
FARIBAULT      SUNNY     68  41  37 NW9       30.16F
OWATONNA       MOSUNNY   68  46  45 N7G17     30.16F
WASECA         MOSUNNY   64  39  39 NW10G16   30.18F
ALBERT LEA     MOSUNNY   66  39  37 W8        30.16F
$$
MNZ078>079-086>088-094>096-262100-
   Southeast Minnesota

CITY           SKY/WX    TMP DP  RH WIND       PRES   REMARKS
ROCHESTER      MOSUNNY   66  46  48 N7        30.17F
RED WING       MOSUNNY   70  37  30 N6        30.11F
STANTON        PTSUNNY   69  42  37 N8G22     30.13F
DODGE CENTER   MOSUNNY   64  41  42 N6        30.16F
WINONA         MOSUNNY   70  45  40 N12       30.13F
AUSTIN         PTSUNNY   64  43  45 N7        30.16S
PRESTON        PTSUNNY   63  45  52 N8        30.16S
$$
ABBREVIATIONS USED IN REMARKS
   TC - TEMPERATURES IN CELSIUS
  WCI - WIND CHILL INDEX
   HX - HEAT INDEX
  VSB - VISIBILITY
$$




USA.gov is the U.S. government's official web portal to all federal, state and local government web resources and services.